Regional Weather Roundup
Issued by NWS

Home | Current Version | Previous Version | Text Only | Print | Product List | Glossary Off
Versions: 1 2 3 4 5 6 7 8 9 10 11 12 13 14 15 16 17 18 19 20 21 22 23 24 25 26 27 28 29 30 31 32 33 34 35 36 37 38 39 40 41 42 43 44 45 46 47 48 49 50

966
ASUS43 KMKX 150400
RWRWI

WISCONSIN REGIONAL WEATHER ROUNDUP
NATIONAL WEATHER SERVICE MILWAUKEE/SULLIVAN WI
1000 PM CST THU DEC 14 2017

NOTE: "FAIR" INDICATES FEW OR NO CLOUDS BELOW 12,000 FEET WITH NO
SIGNIFICANT WEATHER AND/OR OBSTRUCTIONS TO VISIBILITY.

WIZ001-002-006>008-014>016-023>028-150500-
NORTHWEST WISCONSIN

CITY           SKY/WX    TMP DP  RH WIND       PRES   REMARKS
SUPERIOR ARPT  CLOUDY    17   9  71 W5        29.95F WCI  10
ASHLAND        LGT SNOW  17  12  80 W10       29.91F WCI   5
HAYWARD        LGT SNOW  17  12  80 W5        29.90F WCI  10
SIREN          LGT SNOW  19  15  82 W3        29.95S
CUMBERLAND     CLOUDY    19  14  79 W9        29.93S WCI   9
RICE LAKE      FLURRIES  19  15  84 CALM      29.95F
CHETEK         CLOUDY    19  14  80 W5        29.95F WCI  12
LADYSMITH      CLOUDY    19  14  82 W6        29.93F WCI  10
EAU CLAIRE     NOT AVBL
MENOMONIE      FLURRIES  22  15  75 W8        29.98S WCI  13
NEW RICHMOND   FLURRIES  21  15  75 NW17      29.96F WCI   7
OSCEOLA        FLURRIES  22  16  79 W6        30.00F WCI  14
$$

WIZ003>005-009-010-017-018-150500-
NORTH CENTRAL WISCONSIN

CITY           SKY/WX    TMP DP  RH WIND       PRES   REMARKS
MANITOWISH WTR LGT SNOW  14  13  96 SW5       29.83F WCI   7
ARBOR VITAE    FLURRIES  17  13  86 W6        29.84F WCI   8
WOODRUFF       FLURRIES  17  13  86 W6        29.84F WCI   8
RHINELANDER    CLOUDY    16  13  88 W10       29.85F WCI   4
EAGLE RIVER    LGT SNOW  15  12  85 W7        29.83F WCI   6
LAND O LAKES   LGT SNOW  16  13  89 W5        29.83F WCI   9
PHILLIPS       FLURRIES  15  13  92 W6        29.87F WCI   6
TOMAHAWK       LGT SNOW  16  13  88 W5        29.88F WCI   9
MEDFORD        LGT SNOW  17  15  89 W6        29.88F WCI   9
MERRILL        LGT SNOW  18  15  89 W6        29.89F WCI   9
$$

WIZ029-030-035-036-043>047-150500-
CENTRAL WISCONSIN

CITY           SKY/WX    TMP DP  RH WIND       PRES   REMARKS
WAUSAU         LGT SNOW  19  15  84 W10       29.89F FOG     WCI   7
MOSINEE        LGT SNOW  19  18  93 W7        29.92S WCI  10
MARSHFIELD     FLURRIES  20  16  84 W13       29.90F WCI   7
STEVENS POINT  CLOUDY    19  13  77 SW7       29.93F WCI  10
WAUPACA        CLOUDY    23  16  73 SW5       29.95F WCI  17
WAUTOMA        CLOUDY    21  14  74 SW6       29.96F WCI  13
WISC RAPIDS    LGT SNOW  21  13  71 W6        29.95F WCI  13
CAMP DOUGLAS   CLOUDY    24  16  72 W10       29.95F WCI  13
$$

WIZ011>013-019>022-031-037>040-048>050-150500-
NORTHEAST WISCONSIN

CITY           SKY/WX    TMP DP  RH WIND       PRES   REMARKS
ANTIGO         LGT SNOW  17  15  91 W8        29.87F WCI   7
SHAWANO        FLURRIES  22  17  81 CALM      29.93F
OCONTO         CLOUDY    20  16  83 SW3       29.94F
STURGEON BAY   NOT AVBL
GREEN BAY      CLOUDY    21  16  81 S6        29.95F WCI  13
MANITOWOC      FLURRIES  19  14  81 SW5       29.98F WCI  12
APPLETON       CLOUDY    19  16  86 SW6       29.93F WCI  11
CLINTONVILLE   FLURRIES  21  16  79 SW5       29.94F WCI  15
OSHKOSH        CLOUDY    21  14  74 S7        29.95F WCI  12
$$

WIZ032>034-041-042-053>061-150500-
SOUTHWEST WISCONSIN

CITY           SKY/WX    TMP DP  RH WIND       PRES   REMARKS
LA CROSSE      CLOUDY    25  18  74 W14       30.00S WCI  13
SPARTA         CLOUDY    24  18  78 W7        29.99S WCI  16
VIROQUA        CLOUDY    23  20  89 W10G17    29.96S WCI  12
BOSCOBEL       CLOUDY    27  17  66 W8G17     30.01F WCI  19
PRAIRIE DU CHI CLOUDY    27  18  69 W10       30.03R WCI  17
PLATTEVILLE    CLOUDY    25  18  74 SW12      30.00F WCI  14
$$

WIZ056-057-062-063-064-067-068-150500-
SOUTH CENTRAL WISCONSIN

CITY           SKY/WX    TMP DP  RH WIND       PRES   REMARKS
REEDSBURG      CLOUDY    24  15  68 SW7       29.96F WCI  16
BARABOO/DELLS  CLOUDY    23  14  67 SW7       29.96F WCI  15
LONE ROCK      CLOUDY    25  18  74 W6        30.00S WCI  18
MINERAL POINT  CLOUDY    27  19  74 SW9       29.97F WCI  17
MADISON        CLOUDY    24  14  65 SW5       29.98F WCI  18
MIDDLETON      CLOUDY    25  15  66 SW6       29.99F WCI  18
WATERTOWN      CLOUDY    20  14  78 S3        29.99F
MONROE         CLOUDY    23  14  68 SW8       29.99F WCI  14
JANESVILLE     CLOUDY    23  14  68 SW7       30.01F WCI  15
$$

WIZ051-052-058>065-066-070>072-150500-
SOUTHEAST WISCONSIN

CITY           SKY/WX    TMP DP  RH WIND       PRES   REMARKS
MILWAUKEE      CLOUDY    22  12  65 S8        30.02F WCI  12
WAUKESHA       CLOUDY    19  10  68 S5        30.01F WCI  13
MILWAUKEE/TIMM CLOUDY    21  10  63 S6        30.02F WCI  14
RACINE         CLOUDY    21  13  71 S5        30.04F WCI  15
BURLINGTON     CLOUDY    18  15  90 S5        30.02F WCI  11
KENOSHA        CLOUDY    21  12  68 SW6       30.03F WCI  13
FOND DU LAC    CLOUDY    21  13  71 S7        29.97F WCI  12
SHEBOYGAN      CLOUDY    18  13  80 SW7       29.98F WCI   9
WEST BEND      CLOUDY    19  14  79 SW5       29.99F WCI  13
JUNEAU         CLOUDY    20  12  72 S6        29.98F WCI  12
$$

LSZ147-162-150500-
LAKE SUPERIOR

STATION/POSITION TIME  TEMP    WIND        PRES    WAVE
                       AIR SEA DIR/SP/G            HT/PER
                 (UTC) (F)     (DEG/KT/KT) (MB)    (FT/S)
DEVILS ISLAND    0300   19     300/ 19/ 21 1013.8F
SAXON HARBOR     0340   18                 1012.5F
$$

LMZ867-665-643>646-150500-
LAKE MICHIGAN

STATION/POSITION TIME  TEMP    WIND        PRES    WAVE
                       AIR SEA DIR/SP/G            HT/PER
                 (UTC) (F)     (DEG/KT/KT) (MB)    (FT/S)
NORTHPORT PIER   0340   22      CALM  /  7 1013.5F
KEWAUNEE LAKESHO 0330   19     210/  7/ 10 1014.4F
SHEBOYGAN LAKESH 0300   21     240/ 10/ 11 1017.3F
PORT WASHINGTON  0340   21     250/  5/  8 1017.3F
MILWAUKEE LAKESH 0330   24     210/ 10/ 10   N/A
KENOSHA   LAKESH 0300   22     220/  5/  6 1017.6
$$

TC  - TEMPERATURE IN CELSIUS
VSB - VISIBILITY IN STATUTE MILES
WCI - WIND CHILL INDEX
HX  - HEAT INDEX





USA.gov is the U.S. government's official web portal to all federal, state and local government web resources and services.